Regional Weather Roundup
Issued by NWS Little Rock, AR

Home | Current Version | Previous Version | Text Only | Print | Product List | Glossary Off
Versions: 1 2 3 4 5 6 7 8 9 10 11 12 13 14 15 16 17 18 19 20 21 22 23 24 25 26 27 28

000
ASUS44 KLZK 151205
RWRLZK

WEATHER ROUNDUP FOR ARKANSAS
NATIONAL WEATHER SERVICE LITTLE ROCK AR
700 AM CDT TUE APR 15 2014

NOTE: "FAIR" INDICATES FEW OR NO CLOUDS BELOW 12,000 FEET WITH NO
SIGNIFICANT WEATHER AND/OR OBSTRUCTIONS TO VISIBILITY.

ARZ001-003-010-029-151300-
NORTHWEST ARKANSAS

CITY           SKY/WX    TMP DP  RH WIND       PRES   REMARKS
FAYETTEVILLE   CLEAR     24  24 100 CALM      30.22R
6HR MIN TEMP:  23; 6HR MAX TEMP:  29;

FORT SMITH     CLEAR     33  27  78 SW5       30.25R WCI  29
6HR MIN TEMP:  32; 6HR MAX TEMP:  37;

HARRISON       CLEAR     30  21  69 W3        30.20R
6HR MIN TEMP:  28; 6HR MAX TEMP:  31;

BENTONVILLE    CLEAR     27  21  80 CALM      30.21S
6HR MIN TEMP:  27; 6HR MAX TEMP:  30;

ROGERS         CLEAR     29  24  82 CALM      30.22R
6HR MIN TEMP:  28; 6HR MAX TEMP:  32;

SILOAM SPGS    CLEAR     27  18  69 CALM      30.23R
6HR MIN TEMP:  27; 6HR MAX TEMP:  30;

HIGHFILL       CLEAR     26  22  84 CALM      30.21R
6HR MIN TEMP:  26; 6HR MAX TEMP:  32;

SPRINGDALE     CLEAR     28  25  86 CALM      30.23R
$$

ARZ004-005-016-151300-
NORTH CENTRAL ARKANSAS

CITY           SKY/WX    TMP DP  RH WIND       PRES   REMARKS
BATESVILLE     CLEAR     32  23  69 NW3       30.22R
6HR MIN TEMP:  32; 6HR MAX TEMP:  37;

FLIPPIN        CLEAR     30  18  59 NW5       30.22R WCI  25
6HR MIN TEMP:  30; 6HR MAX TEMP:  36;

MTN HOME       CLEAR     29  23  78 NW3       30.21R
6HR MIN TEMP:  28; 6HR MAX TEMP:  33;

$$

ARZ040-041-151300-
WEST CENTRAL ARKANSAS

CITY           SKY/WX    TMP DP  RH WIND       PRES   REMARKS
MENA           CLEAR     32  28  86 CALM      30.23S
MOUNT IDA      CLEAR     30  28  92 CALM      30.20S
6HR MIN TEMP:  30; 6HR MAX TEMP:  38;

$$

ARZ009-017-025-026-028-151300-
NORTHEAST ARKANSAS

CITY           SKY/WX    TMP DP  RH WIND       PRES   REMARKS
CORNING        FAIR      32  27  80 NW8       30.22R WCI  25
JONESBORO      CLEAR     34  24  67 NW3       30.21R
6HR MIN TEMP:  34; 6HR MAX TEMP:  41;

NEWPORT        CLEAR     33  27  79 NW9       30.24R WCI  25
6HR MIN TEMP:  32; 6HR MAX TEMP:  40;

BLYTHEVILLE    CLEAR     33  28  81 N12       30.19R WCI  24
6HR MIN TEMP:  33; 6HR MAX TEMP:  40;

$$

ARZ022-023-033-042-044-151300-
CENTRAL ARKANSAS

CITY           SKY/WX    TMP DP  RH WIND       PRES   REMARKS
LITTLE ROCK    CLEAR     35  25  66 NW7       30.25R WCI  29
6HR MIN TEMP:  34; 6HR MAX TEMP:  41;

N LITTLE ROCK    N/A     35  27  73 NW6       30.25R WCI  30
6HR MIN TEMP:  35; 6HR MAX TEMP:  39;

JACKSONVILLE   CLEAR     32  27  81 NW2       30.24R
6HR MIN TEMP:  31; 6HR MAX TEMP:  40;

SEARCY         CLEAR     33  25  73 NW5       30.25R WCI  28
6HR MIN TEMP:  33; 6HR MAX TEMP:  40;

HOT SPRINGS    CLEAR     32  27  81 CALM      30.24R
6HR MIN TEMP:  32; 6HR MAX TEMP:  41; 6HR PCP:  0.01;

RUSSELLVILLE   CLEAR     30  27  88 CALM      30.24R
6HR MIN TEMP:  29; 6HR MAX TEMP:  41;

CLINTON        FAIR      30  28  93 CALM      30.25R
$$

ARZ036-151300-
EAST ARKANSAS

CITY           SKY/WX    TMP DP  RH WIND       PRES   REMARKS
WEST MEMPHIS   CLEAR     35  28  75 N10       30.18R WCI  27
6HR MIN TEMP:  35; 6HR MAX TEMP:  41;

$$

ARZ050-053-066-070-073-151300-
SOUTHWEST ARKANSAS

CITY           SKY/WX    TMP DP  RH WIND       PRES   REMARKS
ARKADELPHIA    FAIR      36  30  79 CALM      30.27R
6HR MIN TEMP:  35; 6HR MAX TEMP:  41;

CAMDEN         CLEAR     32  28  86 MISG      30.26R
TEXARKANA      CLEAR     34  27  75 NW5       30.26R WCI  30
6HR MIN TEMP:  34; 6HR MAX TEMP:  40;

EL DORADO      CLEAR     33  30  88 VRB3      30.25R
6HR MIN TEMP:  33; 6HR MAX TEMP:  39;

DE QUEEN       FOG       29  29 100 CALM      30.25R VSB<1/4
6HR MIN TEMP:  29; 6HR MAX TEMP:  39;

$$

ARZ056-057-069-151300-
SOUTHEAST ARKANSAS

CITY           SKY/WX    TMP DP  RH WIND       PRES   REMARKS
PINE BLUFF     CLEAR     37  27  67 NW9       30.24R
6HR MIN TEMP:  36; 6HR MAX TEMP:  42;

MONTICELLO     CLEAR     37  27  67 N5        30.22R
6HR MIN TEMP:  37; 6HR MAX TEMP:  43;


$$





USA.gov is the U.S. government's official web portal to all federal, state and local government web resources and services.